| time (UTC) | temp C | wind direction | speed KPH | gust KPH | rain 1hr cm | rain 24hr cm | rain mn cm | humidity % | barometer mb |
| 20260504013510 | 16 | 215 | 6.4 | 16.1 | 0.00 | 0.00 | 0.00 | 41 | 1008.2 |
| 20260504012009 | 16 | 189 | 4.8 | 12.9 | 0.00 | 0.00 | 0.00 | 40 | 1008.2 |
| 20260504011511 | 16 | 146 | 9.7 | 12.9 | 0.00 | 0.00 | 0.00 | 39 | 1008.2 |
| 20260504011011 | 16 | 183 | 4.8 | 14.5 | 0.00 | 0.00 | 0.00 | 39 | 1008.2 |
| 20260504010509 | 16 | 206 | 6.4 | 17.7 | 0.00 | 0.00 | 0.00 | 39 | 1008.2 |
| 20260504005540 | 16 | 144 | 8.0 | 17.7 | 0.00 | 0.00 | 0.00 | 39 | 1008.2 |
| 20260504005009 | 17 | 196 | 9.7 | 19.3 | 0.00 | 0.00 | 0.00 | 38 | 1008.2 |
| 20260504004009 | 17 | 187 | 9.7 | 20.9 | 0.00 | 0.00 | 0.00 | 38 | 1008.2 |
| 20260504003549 | 17 | 197 | 12.9 | 17.7 | 0.00 | 0.00 | 0.00 | 37 | 1008.2 |
| 20260504001516 | 17 | 210 | 19.3 | 20.9 | 0.00 | 0.00 | 0.00 | 37 | 1008.2 |
| 20260504001039 | 17 | 183 | 8.0 | 19.3 | 0.00 | 0.00 | 0.00 | 37 | 1008.2 |
| 20260504000508 | 17 | 225 | 9.7 | 20.9 | 0.00 | 0.00 | 0.00 | 36 | 1008.2 |
| 20260503235016 | 18 | 192 | 17.7 | 27.4 | 0.00 | 0.00 | 0.00 | 36 | 1008.2 |
| 20260503234546 | 18 | 247 | 12.9 | 27.4 | 0.00 | 0.00 | 0.00 | 36 | 1008.2 |
| 20260503233509 | 18 | 201 | 12.9 | 27.4 | 0.00 | 0.00 | 0.00 | 36 | 1008.2 |
| 20260503225037 | 18 | 172 | 9.7 | 20.9 | 0.00 | 0.00 | 0.00 | 36 | 1009.2 |
| 20260503222540 | 18 | 229 | 12.9 | 24.1 | 0.00 | 0.00 | 0.00 | 35 | 1009.2 |
| 20260503221507 | 18 | 172 | 17.7 | 32.2 | 0.00 | 0.00 | 0.00 | 35 | 1009.2 |
| 20260503215506 | 19 | 177 | 14.5 | 24.1 | 0.00 | 0.00 | 0.00 | 35 | 1009.2 |
| 20260503215037 | 19 | 221 | 22.5 | 27.4 | 0.00 | 0.00 | 0.00 | 35 | 1009.2 |
| 20260503214038 | 18 | 229 | 14.5 | 24.1 | 0.00 | 0.00 | 0.00 | 36 | 1009.2 |
| 20260503212039 | 17 | 181 | 14.5 | 20.9 | 0.00 | 0.00 | 0.00 | 37 | 1009.2 |
| 20260503211505 | 17 | 177 | 8.0 | 20.9 | 0.00 | 0.00 | 0.00 | 37 | 1009.2 |
| 20260503210536 | 16 | 179 | 17.7 | 27.4 | 0.00 | 0.00 | 0.00 | 38 | 1009.2 |
| 20260503205541 | 16 | 178 | 12.9 | 32.2 | 0.00 | 0.00 | 0.00 | 37 | 1009.2 |
| 20260503204536 | 16 | 198 | 19.3 | 32.2 | 0.00 | 0.00 | 0.00 | 37 | 1009.2 |
| 20260503202535 | 16 | 207 | 4.8 | 24.1 | 0.00 | 0.00 | 0.00 | 38 | 1010.2 |
| 20260503201006 | 16 | 187 | 9.7 | 32.2 | 0.00 | 0.00 | 0.00 | 38 | 1011.2 |
| 20260503200004 | 16 | 218 | 25.7 | 25.7 | 0.00 | 0.00 | 0.00 | 37 | 1011.2 |
| 20260503195504 | 16 | 230 | 12.9 | 27.4 | 0.00 | 0.00 | 0.00 | 38 | 1011.2 |
| 20260503194509 | 16 | 223 | 20.9 | 27.4 | 0.00 | 0.00 | 0.00 | 38 | 1011.2 |
| 20260503194009 | 16 | 159 | 24.1 | 27.4 | 0.00 | 0.00 | 0.00 | 38 | 1012.2 |
| 20260503193504 | 16 | 218 | 20.9 | 27.4 | 0.00 | 0.00 | 0.00 | 37 | 1012.2 |
| 20260503193034 | 16 | 211 | 19.3 | 27.4 | 0.00 | 0.00 | 0.00 | 37 | 1012.2 |
| 20260503190503 | 15 | 268 | 11.3 | 20.9 | 0.00 | 0.00 | 0.00 | 37 | 1012.2 |
| 20260503190033 | 15 | 235 | 9.7 | 20.9 | 0.00 | 0.00 | 0.00 | 37 | 1012.2 |
| 20260503185533 | 16 | 176 | 14.5 | 24.1 | 0.00 | 0.00 | 0.00 | 37 | 1012.2 |
| 20260503184033 | 16 | 229 | 16.1 | 27.4 | 0.00 | 0.00 | 0.00 | 36 | 1012.2 |
| 20260503182534 | 17 | 188 | 20.9 | 30.6 | 0.00 | 0.00 | 0.00 | 36 | 1013.2 |
| 20260503181032 | 16 | 246 | 17.7 | 33.8 | 0.00 | 0.00 | 0.00 | 37 | 1013.2 |
| 20260503175033 | 17 | 176 | 14.5 | 30.6 | 0.00 | 0.00 | 0.00 | 37 | 1013.2 |
| 20260503172534 | 16 | 224 | 17.7 | 27.4 | 0.00 | 0.00 | 0.00 | 38 | 1014.2 |
| 20260503171542 | 16 | 176 | 17.7 | 29.0 | 0.00 | 0.00 | 0.00 | 38 | 1014.2 |
| 20260503171032 | 16 | 207 | 24.1 | 32.2 | 0.00 | 0.00 | 0.00 | 38 | 1014.2 |
| 20260503150529 | 13 | 222 | 27.4 | 27.4 | 0.00 | 0.00 | 0.00 | 47 | 1016.2 |
| 20260503130527 | 10 | 196 | 9.7 | 20.9 | 0.00 | 0.00 | 0.00 | 58 | 1016.2 |
| 20260503110525 | 6 | 153 | 4.8 | 14.5 | 0.00 | 0.00 | 0.00 | 54 | 1016.2 |
| 20260503081022 | 6 | 241 | 9.7 | 12.9 | 0.00 | 0.00 | 0.00 | 50 | 1016.2 |
| 20260503072521 | 6 | 178 | 4.8 | 11.3 | 0.00 | 0.00 | 0.00 | 50 | 1016.2 |
| 20260503072022 | 6 | 176 | 9.7 | 11.3 | 0.00 | 0.00 | 0.00 | 50 | 1016.2 |
| 20260503071521 | 6 | 174 | 8.0 | 9.7 | 0.00 | 0.00 | 0.00 | 50 | 1016.2 |
| 20260503071021 | 6 | 228 | 8.0 | 12.9 | 0.00 | 0.00 | 0.00 | 50 | 1016.2 |
| 20260503070521 | 6 | 206 | 8.0 | 12.9 | 0.00 | 0.00 | 0.00 | 50 | 1016.2 |
| 20260503055020 | 7 | 149 | 6.4 | 12.9 | 0.00 | 0.00 | 0.00 | 46 | 1017.2 |
| 20260503054020 | 7 | 181 | 8.0 | 9.7 | 0.00 | 0.00 | 0.00 | 46 | 1017.2 |
| 20260503053520 | 7 | 191 | 9.7 | 9.7 | 0.00 | 0.00 | 0.00 | 45 | 1017.2 |
| 20260503053020 | 7 | 139 | 4.8 | 12.9 | 0.00 | 0.00 | 0.00 | 45 | 1017.2 |
| 20260503052520 | 7 | 155 | 8.0 | 12.9 | 0.00 | 0.00 | 0.00 | 45 | 1017.2 |
| 20260503052020 | 7 | 183 | 9.7 | 9.7 | 0.00 | 0.00 | 0.00 | 45 | 1017.2 |
| 20260503051020 | 7 | 166 | 4.8 | 9.7 | 0.00 | 0.00 | 0.00 | 45 | 1017.2 |
| 20260503050019 | 7 | 168 | 0.0 | 9.7 | 0.00 | 0.00 | 0.00 | 45 | 1017.2 |
| 20260503045519 | 7 | 198 | 4.8 | 9.7 | 0.00 | 0.00 | 0.00 | 45 | 1017.2 |
| 20260503045019 | 7 | 190 | 4.8 | 6.4 | 0.00 | 0.00 | 0.00 | 45 | 1017.2 |
| 20260503044519 | 8 | 182 | 0.0 | 8.0 | 0.00 | 0.00 | 0.00 | 44 | 1017.2 |
| 20260503044019 | 8 | 159 | 3.2 | 8.0 | 0.00 | 0.00 | 0.00 | 44 | 1017.2 |
| 20260503043519 | 8 | 158 | 4.8 | 8.0 | 0.00 | 0.00 | 0.00 | 44 | 1017.2 |
| 20260503043019 | 8 | 204 | 8.0 | 8.0 | 0.00 | 0.00 | 0.00 | 44 | 1017.2 |
| 20260503042519 | 8 | 154 | 4.8 | 6.4 | 0.00 | 0.00 | 0.00 | 44 | 1017.2 |
| 20260503042019 | 8 | 157 | 6.4 | 6.4 | 0.00 | 0.00 | 0.00 | 45 | 1017.2 |
| 20260503041519 | 8 | 185 | 4.8 | 6.4 | 0.00 | 0.00 | 0.00 | 45 | 1017.2 |
| 20260503041018 | 8 | 175 | 4.8 | 6.4 | 0.00 | 0.00 | 0.00 | 45 | 1017.2 |
| 20260503040020 | 8 | 151 | 3.2 | 9.7 | 0.00 | 0.03 | 0.00 | 44 | 1017.2 |
| 20260503035519 | 8 | 161 | 4.8 | 9.7 | 0.00 | 0.05 | 0.00 | 45 | 1017.2 |
| 20260503035018 | 7 | 167 | 6.4 | 8.0 | 0.00 | 0.05 | 0.00 | 46 | 1017.2 |
| 20260503034518 | 7 | 185 | 0.0 | 6.4 | 0.00 | 0.05 | 0.00 | 46 | 1017.2 |
| 20260503034018 | 8 | 200 | 0.0 | 6.4 | 0.00 | 0.05 | 0.00 | 45 | 1017.2 |
| 20260503033518 | 8 | 185 | 3.2 | 4.8 | 0.00 | 0.05 | 0.00 | 45 | 1017.2 |
| 20260503033018 | 7 | 190 | 0.0 | 0.0 | 0.00 | 0.05 | 0.00 | 46 | 1017.2 |
| 20260503032518 | 7 | 189 | 0.0 | 0.0 | 0.00 | 0.05 | 0.00 | 46 | 1017.2 |
| 20260503032018 | 7 | 192 | 0.0 | 0.0 | 0.00 | 0.05 | 0.00 | 45 | 1017.2 |
| 20260503031517 | 7 | 192 | 0.0 | 6.4 | 0.00 | 0.05 | 0.00 | 45 | 1017.2 |
| 20260503031018 | 7 | 200 | 0.0 | 6.4 | 0.00 | 0.05 | 0.00 | 44 | 1017.2 |
| 20260503030518 | 7 | 190 | 4.8 | 6.4 | 0.00 | 0.05 | 0.00 | 43 | 1017.2 |
| 20260503030020 | 7 | 198 | 0.0 | 3.2 | 0.00 | 0.05 | 0.00 | 42 | 1017.2 |
| 20260503025517 | 8 | 198 | 0.0 | 8.0 | 0.00 | 0.05 | 0.00 | 42 | 1017.2 |
| 20260503024518 | 8 | 357 | 0.0 | 0.0 | 0.00 | 0.05 | 0.00 | 41 | 1017.2 |
| 20260503024018 | 8 | 357 | 0.0 | 0.0 | 0.00 | 0.05 | 0.00 | 41 | 1017.2 |
| 20260503023517 | 8 | 357 | 0.0 | 0.0 | 0.00 | 0.05 | 0.00 | 41 | 1017.2 |
| 20260503023019 | 8 | 357 | 0.0 | 0.0 | 0.00 | 0.05 | 0.00 | 41 | 1017.2 |
| 20260503022017 | 8 | 357 | 0.0 | 0.0 | 0.00 | 0.05 | 0.00 | 41 | 1017.2 |
| 20260503021517 | 8 | 357 | 0.0 | 0.0 | 0.00 | 0.05 | 0.00 | 41 | 1017.2 |
| 20260503021020 | 8 | 357 | 0.0 | 0.0 | 0.00 | 0.05 | 0.00 | 41 | 1017.2 |
| 20260503020518 | 8 | 357 | 0.0 | 0.0 | 0.00 | 0.05 | 0.00 | 41 | 1017.2 |
| 20260503015016 | 9 | 357 | 0.0 | 0.0 | 0.00 | 0.05 | 0.00 | 40 | 1017.2 |
| 20260503014018 | 9 | 357 | 0.0 | 0.0 | 0.00 | 0.05 | 0.00 | 40 | 1016.2 |